Location: Windsor
(43.2292°N, 89.3015°W)
Time: 14:01:26
(UTC+00:00)

DIWATA 2B (PO-101) - Visible Passes

Search period start: 26 June 2022 00:00
Search period end: 06 July 2022 00:00
Orbit: 585 x 597 km, 98.0° (Epoch: 26 June)

Date Brightness Start Highest point End Pass type
(mag) Time Alt. Az. Time Alt. Az. Time Alt. Az.
26 Jun ? 07:23:28 25° SE 07:25:33 45° ENE 07:29:36 10° N visible
26 Jun ? 09:00:01 14° WSW 09:01:18 16° W 09:03:56 10° NW visible
27 Jun ? 07:31:54 28° SE 07:33:52 56° ENE 07:38:01 10° N visible
27 Jun ? 09:08:28 12° WSW 09:09:44 13° W 09:11:44 10° WNW visible
28 Jun ? 07:40:21 32° SSE 07:42:12 70° ENE 07:46:24 10° N visible
28 Jun ? 09:17:21 10° W 09:18:10 10° W 09:18:59 10° WNW visible
29 Jun ? 07:48:48 35° SSE 07:50:31 86° ENE 07:54:45 10° NNW visible
30 Jun ? 06:22:47 10° ENE 06:23:58 11° ENE 06:25:09 10° NE visible
30 Jun ? 07:57:15 37° S 07:58:51 77° WSW 08:03:06 10° NNW visible
01 Jul ? 06:30:11 10° E 06:32:12 13° ENE 06:34:14 10° NNE visible
01 Jul ? 08:05:42 37° SSW 08:07:12 62° WSW 08:11:24 10° NNW visible
02 Jul ? 06:37:52 10° ESE 06:40:27 16° ENE 06:43:02 10° NNE visible
02 Jul ? 08:14:10 34° SSW 08:15:33 50° W 08:19:40 10° NNW visible
03 Jul ? 06:46:03 11° ESE 06:48:42 19° ENE 06:51:41 10° NNE visible
03 Jul ? 08:22:37 31° SW 08:23:55 40° W 08:27:55 10° NNW visible
04 Jul ? 06:54:30 14° ESE 06:56:57 23° ENE 07:00:16 10° NNE visible
04 Jul ? 08:31:04 27° SW 08:32:18 32° W 08:36:07 10° NNW visible
05 Jul ? 07:02:58 17° ESE 07:05:13 27° ENE 07:08:48 10° N visible
05 Jul ? 08:39:31 23° WSW 08:40:40 27° W 08:44:16 10° NW visible
